MCA2457 CYVR-KPDX

Flight info

Callsign MCA2457
Flight time 1h 0m
Altitude 29000
Route SEA DCT BUWZO KRATR3
Aircraft B738/M-SDE3GHIRWX/LB1

Departure

Time 2026-05-07 01:56
Airport Vancouver International Airport (CYVR)

Arrival

Time 2026-05-07 02:57
Airport Portland International Airport (KPDX)
Time Latitude Longitude Altitude Speed Heading
2026-05-07 00:48 49.19770 -123.17295 10 ft 0 kts 266°
2026-05-07 01:39 49.19771 -123.17277 10 ft 4 kts 260°
2026-05-07 01:39 49.19774 -123.17242 10 ft 3 kts 298°
2026-05-07 01:40 49.19761 -123.17212 10 ft 4 kts 319°
2026-05-07 01:40 49.19738 -123.17194 9 ft 4 kts 351°
2026-05-07 01:40 49.19712 -123.17192 9 ft 3 kts
2026-05-07 01:40 49.19708 -123.17192 9 ft 0 kts
2026-05-07 01:46 49.19723 -123.17191 9 ft 5 kts
2026-05-07 01:47 49.19783 -123.17197 9 ft 12 kts 358°
2026-05-07 01:47 49.19858 -123.17204 9 ft 11 kts 319°
2026-05-07 01:47 49.19900 -123.17302 9 ft 11 kts 291°
2026-05-07 01:47 49.19944 -123.17387 9 ft 11 kts 344°
2026-05-07 01:48 49.20001 -123.17442 9 ft 10 kts 294°
2026-05-07 01:48 49.20014 -123.17549 9 ft 10 kts 279°
2026-05-07 01:48 49.20025 -123.17646 9 ft 10 kts 281°
2026-05-07 01:48 49.20038 -123.17751 9 ft 11 kts 280°
2026-05-07 01:49 49.20054 -123.17887 9 ft 15 kts 279°
2026-05-07 01:49 49.20075 -123.18067 11 ft 19 kts 281°
2026-05-07 01:49 49.20098 -123.18265 8 ft 19 kts 280°
2026-05-07 01:49 49.20119 -123.18456 9 ft 18 kts 281°
2026-05-07 01:50 49.20140 -123.18642 8 ft 17 kts 280°
2026-05-07 01:50 49.20160 -123.18819 10 ft 17 kts 279°
2026-05-07 01:50 49.20179 -123.18993 8 ft 16 kts 280°
2026-05-07 01:50 49.20199 -123.19158 8 ft 15 kts 280°
2026-05-07 01:51 49.20217 -123.19317 10 ft 15 kts 279°
2026-05-07 01:51 49.20234 -123.19470 9 ft 14 kts 281°
2026-05-07 01:51 49.20251 -123.19615 8 ft 14 kts 279°
2026-05-07 01:51 49.20267 -123.19755 8 ft 13 kts 281°
2026-05-07 01:52 49.20282 -123.19889 8 ft 13 kts 279°
2026-05-07 01:52 49.20239 -123.19974 10 ft 12 kts 161°
2026-05-07 01:52 49.20169 -123.19897 8 ft 12 kts 142°
2026-05-07 01:52 49.20103 -123.19819 9 ft 12 kts 142°
2026-05-07 01:53 49.20039 -123.19743 9 ft 12 kts 141°
2026-05-07 01:53 49.19995 -123.19690 9 ft 0 kts 142°
2026-05-07 01:53 49.19992 -123.19690 9 ft 0 kts 174°
2026-05-07 01:54 49.19988 -123.19702 9 ft 3 kts 243°
2026-05-07 01:54 49.19987 -123.19738 9 ft 5 kts 274°
2026-05-07 01:54 49.19992 -123.19795 9 ft 6 kts 279°
2026-05-07 01:54 49.20000 -123.19854 8 ft 6 kts 281°
2026-05-07 01:55 49.20007 -123.19912 8 ft 6 kts 280°
2026-05-07 01:55 49.20013 -123.19970 8 ft 6 kts 274°
2026-05-07 01:55 49.19992 -123.20049 8 ft 11 kts 224°
2026-05-07 01:55 49.19926 -123.20015 8 ft 11 kts 140°
2026-05-07 01:56 49.19848 -123.19921 10 ft 29 kts 143°
2026-05-07 01:56 49.19482 -123.19481 10 ft 104 kts 141°
2026-05-07 01:56 49.18745 -123.18578 49 ft 164 kts 141°
2026-05-07 01:56 49.17776 -123.17497 790 ft 178 kts 143°
2026-05-07 01:57 49.16767 -123.16307 1731 ft 188 kts 141°
2026-05-07 01:57 49.15739 -123.14998 2661 ft 195 kts 140°
2026-05-07 01:57 49.14695 -123.13627 3507 ft 201 kts 140°
2026-05-07 01:57 49.13605 -123.12267 4363 ft 200 kts 143°
2026-05-07 01:58 49.12524 -123.11026 5410 ft 191 kts 146°
2026-05-07 01:58 49.11443 -123.09833 6042 ft 206 kts 147°
2026-05-07 01:58 49.10204 -123.08473 6283 ft 231 kts 146°
2026-05-07 01:58 49.08853 -123.06939 6489 ft 253 kts 144°
2026-05-07 01:59 49.07419 -123.05279 6852 ft 264 kts 144°
2026-05-07 01:59 49.05939 -123.03574 7372 ft 268 kts 145°
2026-05-07 01:59 49.04439 -123.01876 7957 ft 270 kts 146°
2026-05-07 01:59 49.02908 -123.00187 8519 ft 273 kts 147°
2026-05-07 02:00 49.01350 -122.98506 9068 ft 276 kts 148°
2026-05-07 02:00 48.99755 -122.96816 9592 ft 284 kts 148°
2026-05-07 02:00 48.98076 -122.95039 9898 ft 302 kts 148°
2026-05-07 02:00 48.96317 -122.93151 10317 ft 320 kts 147°
2026-05-07 02:01 48.94647 -122.91321 10489 ft 343 kts 146°
2026-05-07 02:01 48.92664 -122.89070 10681 ft 367 kts 145°
2026-05-07 02:01 48.90616 -122.86702 11103 ft 380 kts 145°
2026-05-07 02:01 48.88490 -122.84237 11743 ft 386 kts 145°
2026-05-07 02:02 48.86313 -122.81733 12453 ft 391 kts 145°
2026-05-07 02:02 48.84120 -122.79243 13125 ft 396 kts 146°
2026-05-07 02:02 48.81892 -122.76743 13779 ft 402 kts 146°
2026-05-07 02:02 48.79621 -122.74213 14370 ft 407 kts 146°
2026-05-07 02:03 48.77331 -122.71656 14973 ft 411 kts 146°
2026-05-07 02:03 48.75026 -122.69046 15587 ft 415 kts 145°
2026-05-07 02:03 48.72757 -122.66423 15992 ft 418 kts 144°
2026-05-07 02:03 48.70468 -122.63739 16010 ft 418 kts 144°
2026-05-07 02:04 48.68149 -122.61052 16019 ft 420 kts 145°
2026-05-07 02:04 48.65815 -122.58381 16019 ft 420 kts 145°
2026-05-07 02:04 48.63474 -122.55745 16022 ft 419 kts 146°
2026-05-07 02:04 48.61127 -122.53133 16037 ft 419 kts 146°
2026-05-07 02:05 48.58763 -122.50552 16023 ft 420 kts 147°
2026-05-07 02:05 48.56387 -122.47983 16018 ft 419 kts 147°
2026-05-07 02:05 48.54016 -122.45433 16013 ft 419 kts 147°
2026-05-07 02:05 48.52442 -122.43736 16034 ft 419 kts 147°
2026-05-07 02:06 48.50163 -122.41274 16033 ft 419 kts 147°
2026-05-07 02:06 48.47791 -122.38735 16022 ft 419 kts 147°
2026-05-07 02:06 48.45427 -122.36166 16027 ft 419 kts 147°
2026-05-07 02:06 48.43062 -122.33611 16032 ft 418 kts 147°
2026-05-07 02:07 48.40671 -122.31074 16034 ft 419 kts 147°
2026-05-07 02:07 48.35893 -122.26090 16034 ft 419 kts 149°
2026-05-07 02:07 48.33475 -122.23603 16159 ft 424 kts 148°
2026-05-07 02:08 48.31030 -122.20998 16793 ft 427 kts 147°
2026-05-07 02:08 48.28491 -122.18810 17322 ft 427 kts 162°
2026-05-07 02:08 48.25629 -122.17767 17902 ft 422 kts 179°
2026-05-07 02:08 48.22672 -122.17838 18480 ft 418 kts 192°
2026-05-07 02:09 48.19757 -122.18416 18981 ft 421 kts 192°
2026-05-07 02:09 48.16850 -122.18961 19458 ft 425 kts 192°
2026-05-07 02:09 48.13920 -122.19485 19944 ft 428 kts 192°
2026-05-07 02:09 48.10947 -122.19996 20428 ft 432 kts 192°
2026-05-07 02:10 48.07959 -122.20497 20925 ft 434 kts 192°
2026-05-07 02:10 48.04937 -122.20998 21388 ft 438 kts 192°
2026-05-07 02:10 48.01889 -122.21500 21817 ft 442 kts 192°
2026-05-07 02:10 47.98824 -122.22003 22246 ft 445 kts 192°
2026-05-07 02:11 47.95720 -122.22513 22666 ft 449 kts 192°
2026-05-07 02:11 47.92600 -122.23025 23077 ft 453 kts 192°
2026-05-07 02:11 47.89413 -122.23547 23466 ft 456 kts 192°
2026-05-07 02:11 47.86244 -122.24066 23846 ft 459 kts 192°
2026-05-07 02:12 47.83053 -122.24588 24177 ft 462 kts 192°
2026-05-07 02:12 47.79844 -122.25112 24526 ft 465 kts 192°
2026-05-07 02:12 47.76967 -122.25582 24832 ft 467 kts 192°
2026-05-07 02:12 47.73724 -122.26110 25161 ft 469 kts 192°
2026-05-07 02:13 47.70582 -122.26622 25465 ft 472 kts 192°
2026-05-07 02:13 47.67256 -122.27163 25796 ft 474 kts 192°
2026-05-07 02:13 47.63969 -122.27697 26104 ft 477 kts 192°
2026-05-07 02:13 47.60491 -122.28261 26431 ft 479 kts 192°
2026-05-07 02:14 47.57173 -122.28798 26725 ft 481 kts 192°
2026-05-07 02:14 47.54918 -122.29163 26913 ft 483 kts 192°
2026-05-07 02:14 47.51503 -122.29714 27208 ft 485 kts 192°
2026-05-07 02:14 47.46879 -122.30460 27603 ft 488 kts 192°
2026-05-07 02:15 47.43481 -122.30988 27592 ft 493 kts 190°
2026-05-07 02:15 47.40034 -122.31182 27607 ft 494 kts 186°
2026-05-07 02:15 47.36600 -122.31183 27598 ft 491 kts 185°
2026-05-07 02:15 47.33146 -122.31125 27607 ft 490 kts 185°
2026-05-07 02:16 47.29785 -122.31067 27600 ft 491 kts 185°
2026-05-07 02:16 47.26323 -122.31025 27602 ft 491 kts 185°
2026-05-07 02:16 47.22862 -122.31005 27606 ft 492 kts 185°
2026-05-07 02:16 47.19481 -122.30999 27593 ft 492 kts 185°
2026-05-07 02:17 47.16048 -122.31000 27601 ft 492 kts 185°
2026-05-07 02:17 47.12647 -122.31001 27442 ft 483 kts 185°
2026-05-07 02:17 47.09269 -122.30998 26878 ft 477 kts 185°
2026-05-07 02:17 47.05973 -122.30997 26583 ft 466 kts 186°
2026-05-07 02:18 47.02719 -122.31000 26270 ft 474 kts 186°
2026-05-07 02:18 46.99372 -122.31009 25737 ft 483 kts 185°
2026-05-07 02:18 46.96028 -122.31008 25133 ft 479 kts 185°
2026-05-07 02:18 46.92634 -122.31010 24487 ft 497 kts 185°
2026-05-07 02:19 46.89149 -122.31018 23927 ft 502 kts 185°
2026-05-07 02:19 46.85691 -122.31014 23874 ft 492 kts 185°
2026-05-07 02:19 46.82291 -122.31005 23819 ft 484 kts 185°
2026-05-07 02:19 46.79080 -122.30997 23757 ft 477 kts 185°
2026-05-07 02:20 46.76766 -122.30993 23731 ft 472 kts 185°
2026-05-07 02:20 46.73457 -122.30989 23626 ft 467 kts 185°
2026-05-07 02:20 46.70208 -122.30988 23465 ft 464 kts 185°
2026-05-07 02:20 46.66976 -122.30989 23247 ft 463 kts 185°
2026-05-07 02:21 46.63763 -122.30989 23023 ft 462 kts 185°
2026-05-07 02:21 46.60233 -122.30988 22837 ft 459 kts 185°
2026-05-07 02:21 46.57264 -122.30987 22663 ft 458 kts 185°
2026-05-07 02:21 46.54073 -122.30986 22467 ft 457 kts 185°
2026-05-07 02:22 46.50897 -122.30984 22313 ft 456 kts 185°
2026-05-07 02:22 46.47724 -122.30982 22131 ft 455 kts 185°
2026-05-07 02:22 46.44650 -122.30980 21985 ft 453 kts 185°
2026-05-07 02:22 46.41369 -122.30977 21790 ft 452 kts 185°
2026-05-07 02:23 46.38222 -122.30974 21654 ft 451 kts 185°
2026-05-07 02:23 46.35095 -122.30971 21530 ft 449 kts 185°
2026-05-07 02:23 46.31972 -122.30969 21398 ft 448 kts 185°
2026-05-07 02:23 46.28848 -122.30967 21254 ft 448 kts 185°
2026-05-07 02:24 46.25759 -122.31114 21134 ft 441 kts 194°
2026-05-07 02:24 46.22907 -122.32320 20918 ft 425 kts 212°
2026-05-07 02:24 46.20500 -122.34532 20616 ft 399 kts 220°
2026-05-07 02:24 46.18067 -122.36322 20443 ft 389 kts 205°
2026-05-07 02:25 46.15480 -122.37370 20356 ft 386 kts 201°
2026-05-07 02:25 46.13071 -122.38337 20343 ft 381 kts 203°
2026-05-07 02:25 46.10588 -122.39463 20218 ft 360 kts 205°
2026-05-07 02:25 46.08300 -122.40588 20121 ft 341 kts 207°
2026-05-07 02:26 46.06134 -122.41744 20013 ft 324 kts 208°
2026-05-07 02:26 46.04080 -122.42871 19865 ft 310 kts 209°
2026-05-07 02:26 46.02089 -122.43968 19490 ft 305 kts 209°
2026-05-07 02:26 46.00105 -122.45056 19013 ft 305 kts 208°
2026-05-07 02:27 45.98135 -122.46125 18619 ft 302 kts 208°
2026-05-07 02:27 45.96239 -122.47146 18181 ft 300 kts 208°
2026-05-07 02:27 45.94304 -122.48186 17707 ft 297 kts 208°
2026-05-07 02:27 45.92397 -122.49306 17197 ft 289 kts 218°
2026-05-07 02:28 45.90906 -122.51100 16735 ft 274 kts 237°
2026-05-07 02:28 45.89920 -122.53367 16308 ft 265 kts 252°
2026-05-07 02:28 45.89497 -122.55377 16277 ft 250 kts 264°
2026-05-07 02:28 45.89411 -122.57547 16202 ft 239 kts 276°
2026-05-07 02:29 45.89749 -122.59829 16058 ft 232 kts 290°
2026-05-07 02:29 45.90496 -122.61870 15770 ft 233 kts 303°
2026-05-07 02:29 45.91616 -122.63572 15480 ft 237 kts 317°
2026-05-07 02:29 45.93049 -122.64797 15213 ft 244 kts 332°
2026-05-07 02:30 45.94695 -122.65485 14950 ft 249 kts 342°
2026-05-07 02:30 45.96445 -122.65615 14692 ft 259 kts 360°
2026-05-07 02:30 45.98221 -122.64922 14413 ft 267 kts 11°
2026-05-07 02:30 45.99970 -122.64019 14184 ft 267 kts 12°
2026-05-07 02:31 46.01715 -122.63102 13916 ft 266 kts 12°
2026-05-07 02:31 46.03451 -122.62188 13668 ft 265 kts 12°
2026-05-07 02:31 46.05176 -122.61272 13398 ft 265 kts 15°
2026-05-07 02:31 46.06747 -122.59789 13112 ft 277 kts 38°
2026-05-07 02:32 46.07957 -122.57595 12889 ft 283 kts 55°
2026-05-07 02:32 46.08702 -122.54956 12629 ft 287 kts 75°
2026-05-07 02:32 46.08856 -122.52081 12330 ft 288 kts 96°
2026-05-07 02:32 46.08336 -122.49316 12011 ft 287 kts 118°
2026-05-07 02:33 46.07202 -122.47002 11734 ft 280 kts 141°
2026-05-07 02:33 46.05641 -122.45419 11473 ft 271 kts 161°
2026-05-07 02:33 46.03876 -122.44623 11213 ft 262 kts 177°
2026-05-07 02:33 46.02088 -122.44440 10957 ft 254 kts 192°
2026-05-07 02:34 46.00406 -122.44993 10688 ft 245 kts 207°
2026-05-07 02:34 45.98807 -122.45822 10462 ft 244 kts 207°
2026-05-07 02:34 45.97217 -122.46660 10212 ft 243 kts 207°
2026-05-07 02:34 45.95652 -122.47487 9957 ft 242 kts 207°
2026-05-07 02:35 45.94070 -122.48322 9696 ft 241 kts 206°
2026-05-07 02:35 45.92533 -122.49220 9469 ft 235 kts 219°
2026-05-07 02:35 45.91394 -122.50802 9148 ft 225 kts 242°
2026-05-07 02:35 45.90787 -122.52817 8891 ft 218 kts 261°
2026-05-07 02:36 45.90748 -122.54969 8640 ft 215 kts 281°
2026-05-07 02:36 45.91278 -122.56965 8399 ft 217 kts 301°
2026-05-07 02:36 45.92323 -122.58537 8157 ft 222 kts 323°
2026-05-07 02:36 45.93755 -122.59429 7903 ft 229 kts 342°
2026-05-07 02:37 45.95375 -122.59551 7659 ft 240 kts
2026-05-07 02:37 45.96889 -122.58532 7421 ft 252 kts 37°
2026-05-07 02:37 45.97930 -122.56484 7253 ft 259 kts 65°
2026-05-07 02:37 45.98265 -122.53965 7110 ft 258 kts 94°
2026-05-07 02:38 45.97801 -122.51515 7066 ft 257 kts 121°
2026-05-07 02:38 45.96632 -122.49601 7018 ft 255 kts 150°
2026-05-07 02:38 45.95009 -122.48666 7019 ft 252 kts 176°
2026-05-07 02:38 45.93294 -122.48734 7003 ft 244 kts 197°
2026-05-07 02:39 45.91543 -122.48842 6886 ft 268 kts 173°
2026-05-07 02:39 45.89694 -122.48205 6786 ft 278 kts 171°
2026-05-07 02:39 45.87788 -122.47603 6627 ft 281 kts 172°
2026-05-07 02:39 45.85881 -122.47069 6461 ft 275 kts 173°
2026-05-07 02:40 45.84022 -122.46585 6281 ft 268 kts 174°
2026-05-07 02:40 45.82212 -122.46128 6160 ft 261 kts 174°
2026-05-07 02:40 45.80454 -122.45689 6033 ft 254 kts 174°
2026-05-07 02:40 45.78742 -122.45262 6004 ft 242 kts 174°
2026-05-07 02:41 45.77109 -122.44855 6007 ft 236 kts 174°
2026-05-07 02:41 45.75498 -122.44457 6008 ft 235 kts 174°
2026-05-07 02:41 45.73883 -122.44058 6003 ft 236 kts 174°
2026-05-07 02:41 45.72264 -122.43658 5996 ft 237 kts 174°
2026-05-07 02:42 45.70641 -122.43256 5988 ft 237 kts 174°
2026-05-07 02:42 45.69020 -122.42854 5994 ft 236 kts 174°
2026-05-07 02:42 45.67401 -122.42453 5987 ft 235 kts 174°
2026-05-07 02:42 45.65790 -122.42054 5993 ft 235 kts 174°
2026-05-07 02:43 45.64179 -122.41655 5990 ft 233 kts 174°
2026-05-07 02:43 45.62590 -122.41262 6010 ft 230 kts 174°
2026-05-07 02:43 45.61004 -122.40872 5998 ft 234 kts 174°
2026-05-07 02:43 45.59403 -122.40169 5612 ft 248 kts 157°
2026-05-07 02:44 45.57907 -122.39038 5199 ft 245 kts 159°
2026-05-07 02:44 45.56823 -122.38615 4884 ft 236 kts 181°
2026-05-07 02:44 45.54874 -122.39532 4365 ft 217 kts 222°
2026-05-07 02:44 45.54135 -122.41252 4138 ft 199 kts 263°
2026-05-07 02:45 45.54415 -122.43064 4014 ft 182 kts 293°
2026-05-07 02:45 45.54869 -122.44645 3760 ft 172 kts 275°
2026-05-07 02:45 45.54498 -122.46206 3333 ft 170 kts 223°
2026-05-07 02:45 45.53396 -122.46731 2844 ft 180 kts 173°
2026-05-07 02:46 45.52353 -122.45811 2372 ft 183 kts 123°
2026-05-07 02:46 45.51819 -122.44220 2095 ft 175 kts 109°
2026-05-07 02:46 45.51390 -122.42611 2027 ft 174 kts 109°
2026-05-07 02:46 45.50956 -122.40955 2316 ft 183 kts 109°
2026-05-07 02:47 45.50505 -122.39244 3204 ft 185 kts 112°
2026-05-07 02:47 45.50038 -122.37489 3562 ft 189 kts 112°
2026-05-07 02:47 45.49570 -122.35725 3680 ft 192 kts 112°
2026-05-07 02:47 45.49101 -122.33960 3687 ft 189 kts 112°
2026-05-07 02:48 45.48636 -122.32216 3681 ft 186 kts 112°
2026-05-07 02:48 45.48143 -122.30518 3680 ft 186 kts 118°
2026-05-07 02:48 45.47543 -122.28881 3687 ft 187 kts 120°
2026-05-07 02:48 45.46930 -122.27243 3691 ft 188 kts 120°
2026-05-07 02:49 45.46310 -122.25601 3704 ft 189 kts 121°
2026-05-07 02:49 45.45428 -122.24283 3674 ft 183 kts 163°
2026-05-07 02:49 45.44224 -122.24274 3697 ft 173 kts 205°
2026-05-07 02:49 45.43291 -122.25287 3693 ft 170 kts 237°
2026-05-07 02:50 45.42946 -122.26861 3675 ft 170 kts 272°
2026-05-07 02:50 45.43347 -122.28414 3700 ft 171 kts 308°
2026-05-07 02:50 45.44354 -122.29318 3701 ft 177 kts 343°
2026-05-07 02:50 45.45597 -122.29466 3707 ft 181 kts 356°
2026-05-07 02:51 45.46841 -122.29524 3696 ft 184 kts 354°
2026-05-07 02:51 45.48003 -122.30091 3676 ft 176 kts 310°
2026-05-07 02:51 45.48614 -122.31563 3691 ft 175 kts 295°
2026-05-07 02:51 45.49183 -122.33106 3695 ft 177 kts 296°
2026-05-07 02:52 45.49573 -122.34130 3683 ft 176 kts 297°
2026-05-07 02:52 45.50156 -122.35644 3687 ft 173 kts 297°
2026-05-07 02:52 45.50752 -122.37118 3679 ft 168 kts 298°
2026-05-07 02:52 45.51318 -122.38547 3492 ft 164 kts 296°
2026-05-07 02:53 45.51841 -122.39963 3246 ft 150 kts 297°
2026-05-07 02:53 45.52310 -122.41195 2993 ft 139 kts 297°
2026-05-07 02:53 45.52765 -122.42408 2613 ft 139 kts 300°
2026-05-07 02:53 45.53222 -122.43601 2258 ft 135 kts 299°
2026-05-07 02:54 45.53652 -122.44794 1882 ft 136 kts 301°
2026-05-07 02:54 45.54123 -122.45951 1598 ft 134 kts 304°
2026-05-07 02:54 45.54599 -122.47094 1309 ft 133 kts 304°
2026-05-07 02:54 45.55072 -122.48218 1106 ft 135 kts 302°
2026-05-07 02:55 45.55555 -122.49493 1097 ft 146 kts 302°
2026-05-07 02:55 45.56068 -122.50778 971 ft 153 kts 301°
2026-05-07 02:55 45.56584 -122.52131 770 ft 154 kts 300°
2026-05-07 02:55 45.57069 -122.53388 560 ft 145 kts 302°
2026-05-07 02:56 45.57564 -122.54632 397 ft 142 kts 302°
2026-05-07 02:56 45.58029 -122.55851 220 ft 138 kts 302°
2026-05-07 02:56 45.58494 -122.57028 46 ft 135 kts 301°
2026-05-07 02:56 45.58920 -122.58118 30 ft 121 kts 298°
2026-05-07 02:57 45.59294 -122.59086 32 ft 92 kts 299°
2026-05-07 02:57 45.59452 -122.59537 29 ft 20 kts 257°
2026-05-07 02:57 45.59396 -122.59608 29 ft 0 kts 201°
2026-05-07 02:58 45.59394 -122.59610 29 ft 3 kts 202°
2026-05-07 02:58 45.59353 -122.59653 29 ft 11 kts 227°
2026-05-07 02:58 45.59304 -122.59759 28 ft 13 kts 234°
2026-05-07 02:58 45.59228 -122.59834 28 ft 13 kts 212°
2026-05-07 02:59 45.59154 -122.59903 27 ft 13 kts 233°
2026-05-07 02:59 45.59138 -122.60022 27 ft 12 kts 256°
2026-05-07 02:59 45.59080 -122.60107 27 ft 12 kts 210°
2026-05-07 02:59 45.59007 -122.60161 27 ft 12 kts 192°
2026-05-07 03:00 45.58939 -122.60125 27 ft 12 kts 121°
2026-05-07 03:00 45.58899 -122.60027 27 ft 11 kts 120°
2026-05-07 03:00 45.58891 -122.60007 27 ft 0 kts 118°
2026-05-07 03:01 45.58891 -122.60006 27 ft 1 kts 118°
2026-05-07 03:01 45.58880 -122.59973 27 ft 2 kts 94°
2026-05-07 03:01 45.58894 -122.59954 27 ft 4 kts 39°
2026-05-07 03:01 45.58917 -122.59926 27 ft 4 kts 41°
2026-05-07 03:02 45.58932 -122.59907 27 ft 2 kts 40°
2026-05-07 03:02 45.58939 -122.59899 27 ft 0 kts 41°